Weather History for KUDG - February, 2013

Change the Weather History Date:

Friday, February 22, 2013

  Actual Average (KFLO) Record (KFLO)
Temperature  
Mean Temperature 42 °F 50 °F  
Max Temperature 46 °F 61 °F 80 °F (1990)
Min Temperature 37 °F 39 °F 21 °F (1963)
Degree Days  
Heating Degree Days 24 15  
Month to date heating degree days 378  
Since 1 July heating degree days 1980  
Cooling Degree Days 0 0  
Month to date cooling degree days 0  
Year to date cooling degree days 2  
Moisture  
Dew Point 33 °F    
Average Humidity 76    
Maximum Humidity 100    
Minimum Humidity 46    
Precipitation  
Precipitation 0.07 in 0.10 in 2.86 in (1962)
Month to date precipitation 2.27  
Year to date precipitation 5.50  
Sea Level Pressure  
Sea Level Pressure 30.22 in    
Wind  
Wind Speed 9 mph (NE)    
Max Wind Speed 15 mph    
Max Gust Speed 21 mph    
T = Trace of Precipitation, MM = Missing Value Source: NWS Daily Summary

Daily Weather History Graph

Daily Weather History Graph

Search for Another Location

Airport or City:

Trip Planner

Search our weather history database for the weather conditions in past years. The results will help you decide how hot, cold, wet, or windy it might be!

Date:

Astronomy

Feb. 22, 2013 Rise Set
Actual Time 6:56 AM EST 6:09 PM EST
Civil Twilight 6:31 AM EST 6:35 PM EST
Nautical Twilight 6:02 AM EST 7:04 PM EST
Astronomical Twilight 5:32 AM EST 7:33 PM EST
Moon 3:24 PM EST (2/22) 4:35 AM EST (2/22)
Length of Visible Light 12h 03m
Length of Day
11h 12m
Waxing Gibbous, 90% of the Moon is Illuminated
Feb 22
Waxing Gibbous
Feb 25
Full
Mar 4
Last Quarter
Mar 11
New
Mar 19
First Quarter

Hourly Weather History & Observations

Time (EST) Temp. Windchill Dew Point Humidity Pressure Visibility Wind Dir Wind Speed Gust Speed Precip Events Conditions
12:15 AM 46.4 °F 42.9 °F 30.2 °F 53% 30.21 in - ENE 6.9 mph - N/A   Clear
12:35 AM 46.4 °F 42.4 °F 28.4 °F 50% 30.24 in - NNE 8.1 mph - N/A   Scattered Clouds
12:55 AM 46.4 °F 41.9 °F 28.4 °F 50% 30.25 in - NE 9.2 mph - N/A   Mostly Cloudy
1:15 AM 46.4 °F 41.9 °F 28.4 °F 50% 30.25 in - ENE 9.2 mph - N/A   Partly Cloudy
1:55 AM 46.4 °F 41.9 °F 26.6 °F 46% 30.24 in - ENE 9.2 mph - N/A   Mostly Cloudy
2:15 AM 46.4 °F 41.9 °F 26.6 °F 46% 30.24 in - ENE 9.2 mph - N/A   Overcast
2:35 AM 46.4 °F 41.1 °F 26.6 °F 46% 30.25 in - ENE 11.5 mph 17.3 mph N/A   Overcast
2:55 AM 46.4 °F 41.5 °F 26.6 °F 46% 30.27 in - NE 10.4 mph - N/A   Overcast
3:15 AM 46.4 °F 42.4 °F 26.6 °F 46% 30.29 in - NNE 8.1 mph - N/A   Overcast
3:35 AM 44.6 °F 39.7 °F 26.6 °F 49% 30.29 in - NNE 9.2 mph - N/A   Overcast
3:55 AM 44.6 °F 37.8 °F 26.6 °F 49% 30.27 in - NE 15.0 mph 18.4 mph N/A   Mostly Cloudy
4:15 AM 44.6 °F 38.4 °F 24.8 °F 46% 30.26 in - ENE 12.7 mph 20.7 mph N/A   Clear
4:35 AM 44.6 °F 38.8 °F 24.8 °F 46% 30.26 in - ENE 11.5 mph - N/A   Clear
4:55 AM 44.6 °F 39.2 °F 24.8 °F 46% 30.25 in - ENE 10.4 mph 17.3 mph N/A   Scattered Clouds
5:15 AM 44.6 °F 39.7 °F 24.8 °F 46% 30.26 in - East 9.2 mph - N/A   Scattered Clouds
5:35 AM 44.6 °F 39.2 °F 24.8 °F 46% 30.26 in - East 10.4 mph 17.3 mph N/A   Mostly Cloudy
5:55 AM 44.6 °F 40.7 °F 26.6 °F 49% 30.29 in - East 6.9 mph - N/A   Overcast
6:15 AM 42.8 °F 37.0 °F 26.6 °F 53% 30.27 in - East 10.4 mph - N/A   Overcast
6:35 AM 42.8 °F 37.5 °F 26.6 °F 53% 30.26 in - ENE 9.2 mph - N/A   Mostly Cloudy
6:55 AM 41.0 °F 35.2 °F 30.2 °F 65% 30.25 in - ENE 9.2 mph - N/A   Mostly Cloudy
7:15 AM 39.2 °F 34.2 °F 30.2 °F 70% 30.27 in - East 6.9 mph - 0.01 in   Overcast
7:35 AM 39.2 °F 35.0 °F 32.0 °F 75% 30.27 in - East 5.8 mph - 0.01 in   Mostly Cloudy
7:55 AM 39.2 °F 35.0 °F 32.0 °F 75% 30.26 in - ENE 5.8 mph - 0.01 in   Mostly Cloudy
8:15 AM 39.2 °F 35.0 °F 33.8 °F 81% 30.27 in - East 5.8 mph - N/A   Mostly Cloudy
8:35 AM 39.2 °F 35.0 °F 33.8 °F 81% 30.28 in - ENE 5.8 mph - N/A   Mostly Cloudy
8:55 AM 39.2 °F 34.2 °F 33.8 °F 81% 30.28 in - ENE 6.9 mph - N/A   Overcast
9:15 AM 39.2 °F 34.2 °F 33.8 °F 81% 30.27 in - East 6.9 mph - N/A   Overcast
9:35 AM 39.2 °F 33.0 °F 35.6 °F 87% 30.25 in - East 9.2 mph - N/A   Overcast
9:55 AM 39.2 °F 33.0 °F 33.8 °F 81% 30.25 in - ENE 9.2 mph - N/A   Overcast
10:15 AM 39.2 °F 33.6 °F 35.6 °F 87% 30.26 in - NE 8.1 mph - N/A   Overcast
10:35 AM 39.2 °F 33.0 °F 33.8 °F 81% 30.26 in - ENE 9.2 mph - N/A   Overcast
10:55 AM 39.2 °F 33.6 °F 33.8 °F 81% 30.27 in - ENE 8.1 mph - N/A   Overcast
11:15 AM 39.2 °F 35.0 °F 33.8 °F 81% 30.27 in - ENE 5.8 mph - N/A   Overcast
11:35 AM 41.0 °F 36.4 °F 35.6 °F 81% 30.25 in - ENE 6.9 mph - N/A   Overcast
11:55 AM 41.0 °F 35.8 °F 33.8 °F 76% 30.24 in - ENE 8.1 mph - N/A   Overcast
12:15 PM 41.0 °F 37.1 °F 33.8 °F 76% 30.26 in - NNE 5.8 mph - N/A   Overcast
12:35 PM 39.2 °F 35.0 °F 35.6 °F 87% 30.24 in - NE 5.8 mph - 0.01 in   Overcast
12:55 PM 39.2 °F 33.6 °F 35.6 °F 87% 30.23 in - NE 8.1 mph - 0.01 in   Overcast
1:15 PM 39.2 °F 33.6 °F 35.6 °F 87% 30.22 in - NE 8.1 mph - N/A   Overcast
1:35 PM 39.2 °F 33.6 °F 35.6 °F 87% 30.21 in - NNE 8.1 mph - N/A   Overcast
1:55 PM 39.2 °F 33.0 °F 35.6 °F 87% 30.21 in - NNE 9.2 mph - N/A   Overcast
2:15 PM 39.2 °F 33.0 °F 35.6 °F 87% 30.20 in - NNE 9.2 mph - N/A   Overcast
2:35 PM 39.2 °F 33.0 °F 35.6 °F 87% 30.18 in - NE 9.2 mph - N/A   Overcast
2:55 PM 39.2 °F 32.5 °F 35.6 °F 87% 30.18 in - NE 10.4 mph - 0.01 in   Overcast
3:15 PM 39.2 °F 34.2 °F 35.6 °F 87% 30.18 in - NNE 6.9 mph - N/A   Overcast
3:35 PM 39.2 °F 33.6 °F 35.6 °F 87% 30.19 in - NNE 8.1 mph - N/A   Overcast
3:55 PM 39.2 °F 33.0 °F 35.6 °F 87% 30.19 in - North 9.2 mph - N/A   Overcast
4:15 PM 39.2 °F 33.0 °F 35.6 °F 87% 30.19 in - North 9.2 mph - 0.01 in   Unknown
4:35 PM 37.4 °F 31.4 °F 35.6 °F 93% 30.19 in - North 8.1 mph - 0.01 in   Overcast
4:55 PM 39.2 °F 33.6 °F 35.6 °F 87% 30.18 in - NNE 8.1 mph - 0.01 in   Overcast
5:15 PM 39.2 °F 33.0 °F 37.4 °F 93% 30.17 in - NNE 9.2 mph - 0.01 in   Overcast
5:35 PM 39.2 °F 33.0 °F 35.6 °F 87% 30.17 in - NNE 9.2 mph - 0.01 in   Overcast
5:55 PM 37.4 °F 32.1 °F 37.4 °F 100% 30.17 in - NNE 6.9 mph - 0.01 in   Overcast
6:15 PM 39.2 °F 32.5 °F 37.4 °F 93% 30.18 in - North 10.4 mph - 0.01 in   Overcast
6:35 PM 39.2 °F 32.5 °F 35.6 °F 87% 30.18 in - NNE 10.4 mph - 0.01 in   Overcast
6:55 PM 39.2 °F 32.5 °F 35.6 °F 87% 30.17 in - NNE 10.4 mph - 0.01 in   Overcast
7:15 PM 39.2 °F 32.0 °F 35.6 °F 87% 30.17 in - NNE 11.5 mph - 0.01 in   Overcast
7:35 PM 39.2 °F 33.6 °F 35.6 °F 87% 30.17 in - NNE 8.1 mph - 0.01 in   Overcast
7:55 PM 39.2 °F 33.6 °F 35.6 °F 87% 30.16 in - NE 8.1 mph - 0.01 in   Overcast
8:15 PM 39.2 °F 34.2 °F 35.6 °F 87% 30.16 in - NE 6.9 mph - N/A   Overcast
8:35 PM 39.2 °F 34.2 °F 35.6 °F 87% 30.15 in - ENE 6.9 mph - N/A   Overcast
8:55 PM 39.2 °F 33.6 °F 37.4 °F 93% 30.16 in - North 8.1 mph - N/A   Overcast
9:15 PM 39.2 °F 33.6 °F 35.6 °F 87% 30.17 in - North 8.1 mph - N/A   Overcast
9:35 PM 39.2 °F 33.0 °F 35.6 °F 87% 30.17 in - North 9.2 mph - N/A   Overcast
9:55 PM 39.2 °F 33.6 °F 37.4 °F 93% 30.16 in - NNE 8.1 mph - N/A   Overcast
10:15 PM 39.2 °F 33.0 °F 35.6 °F 87% 30.16 in - NNE 9.2 mph - N/A   Overcast
10:35 PM 37.4 °F 30.8 °F 35.6 °F 93% 30.16 in - North 9.2 mph - N/A   Overcast
10:55 PM 37.4 °F 30.8 °F 35.6 °F 93% 30.15 in - North 9.2 mph - N/A   Overcast
11:15 PM 39.2 °F 33.0 °F 35.6 °F 87% 30.14 in - North 9.2 mph - N/A   Overcast
11:35 PM 37.4 °F 32.1 °F 35.6 °F 93% 30.13 in - North 6.9 mph - N/A   Overcast
11:55 PM 37.4 °F 30.3 °F 35.6 °F 93% 30.11 in - NNE 10.4 mph - N/A   Overcast